This is the latest recevied weather packets stored in our database for station/object KD6VPH. If no packets are shown the sender has not sent any weather packets the latest 10 day(s).
| Time | Temp. | Humidity | Pressure | Rain* | Wind** | Luminosity | Snow |
|---|---|---|---|---|---|---|---|
| 1777387534 | 8.33° C | 88% | 1020.2 hPa | 0 mm | - | 58 W/m² | - |
| 1777386934 | 8.33° C | 88% | 1020.1 hPa | 0 mm | - | 53 W/m² | - |
| 1777386334 | 8.33° C | 88% | 1020 hPa | 0 mm | - | 40 W/m² | - |
| 1777385734 | 8.33° C | 88% | 1020 hPa | 0 mm | - | 35 W/m² | - |
| 1777385134 | 8.33° C | 88% | 1019.8 hPa | 0 mm | - | 32 W/m² | - |
| 1777383934 | 8.33° C | 87% | 1019.6 hPa | 0 mm | - | 18 W/m² | - |
| 1777383334 | 8.33° C | 87% | 1019.5 hPa | 0 mm | - | 23 W/m² | - |
| 1777382734 | 8.33° C | 87% | 1019.2 hPa | 0 mm | - | 21 W/m² | - |
| 1777382135 | 8.33° C | 87% | 1019.2 hPa | 0 mm | - | 12 W/m² | - |
| 1777381534 | 8.33° C | 87% | 1019.2 hPa | 0 mm | - | 5 W/m² | - |
| 1777380934 | 8.33° C | 87% | 1019.1 hPa | 0 mm | - | 0 W/m² | - |
| 1777379735 | 8.33° C | 87% | 1019 hPa | 0 mm | - | 0 W/m² | - |
| 1777378535 | 8.33° C | 87% | 1019 hPa | 0 mm | - | 0 W/m² | - |
| 1777377935 | 8.33° C | 87% | 1018.9 hPa | 0 mm | - | 0 W/m² | - |
| 1777377335 | 8.33° C | 87% | 1019.1 hPa | 0 mm | - | 0 W/m² | - |
| 1777376735 | 8.33° C | 87% | 1018.9 hPa | 0 mm | - | 0 W/m² | - |
| 1777376135 | 8.33° C | 87% | 1018.9 hPa | 0 mm | - | 0 W/m² | - |
| 1777375535 | 8.33° C | 87% | 1018.7 hPa | 0 mm | - | 0 W/m² | - |
| 1777374935 | 8.33° C | 87% | 1018.6 hPa | 0 mm | - | 0 W/m² | - |
| 1777374335 | 8.33° C | 87% | 1018.6 hPa | 0 mm | - | 0 W/m² | - |
| 1777373735 | 8.33° C | 87% | 1018.6 hPa | 0 mm | - | 0 W/m² | - |
| 1777373135 | 8.33° C | 86% | 1018.5 hPa | 0 mm | - | 0 W/m² | - |
| 1777372535 | 8.33° C | 86% | 1018.7 hPa | 0 mm | - | 0 W/m² | - |
| 1777371335 | 8.33° C | 86% | 1018.5 hPa | 0 mm | - | 0 W/m² | - |
| 1777370735 | 8.33° C | 86% | 1018.5 hPa | 0 mm | - | 0 W/m² | - |
* Rain latest hour (hover to see other rain measurements)
** Current wind speed in m/s (hover to see current wind gust speed)